Location: Bauersach School (historical)
(38.0926°N, 89.4806°W)
Time: 03:56:07
(UTC+00:00)

Cosmos 1933 - Pass Details

Date: 11 December 2025
Orbit: 510 x 517 km, 82.5° (Epoch: 21 January)

Event Time Altitude Azimuth Distance (km) Brightness Sun altitude
Rises 23:01:39 0° 173° (S) 2,631 7.0 -4.9°
Reaches altitude 10° 23:03:49 10° 167° (SSE) 1,747 6.1 -5.3°
Maximum altitude 23:07:30 46° 93° (E) 705 3.5 -5.9°
Drops below altitude 10° 23:11:12 10° 20° (NNE) 1,756 5.5 -6.6°
Enters shadow 23:14:33 -4° 13° (NNE) 3,130 6.8 -7.2°
